Location: Piotrkow Trybunalski
(51.4000°N, 19.6830°E)
Time: 14:28:24
(UTC+01:00)

Vanguard 2 - Pass Details

Date: 09 February 2023
Orbit: 553 x 2927 km, 32.9° (Epoch: 24 March)

Event Time Altitude Azimuth Distance (km) Brightness Sun altitude
Rises 21:24:48 0° 241° (WSW) 4,979 11.9 -42.4°
Reaches altitude 10° 21:28:02 10° 233° (SW) 4,297 11.4 -42.8°
Enters shadow 21:32:53 26° 213° (SSW) 3,587 10.7 -43.4°
Maximum altitude 21:38:53 36° 173° (S) 3,464 - -44.1°
Drops below altitude 10° 21:53:20 10° 116° (ESE) 5,716 - -45.8°
Sets 21:58:29 0° 109° (ESE) 6,781 - -46.3°
